| time (UTC) | temp F | wind direction | speed MPH | gust MPH | rain 1hr in | rain 24hr in | rain mn in | humidity % | barometer mb |
| 20260503053053 | 52 | 239 | 0.0 | 7.0 | 0.00 | 0.00 | 0.00 | 87 | 1011.5 |
| 20260503051554 | 52 | 285 | 4.0 | 11.0 | 0.00 | 0.00 | 0.00 | 87 | 1011.4 |
| 20260503050057 | 53 | 304 | 5.0 | 11.0 | 0.00 | 0.00 | 0.00 | 86 | 1011.8 |
| 20260503044547 | 53 | 302 | 9.0 | 14.0 | 0.00 | 0.00 | 0.00 | 85 | 1011.4 |
| 20260503043047 | 53 | 264 | 4.0 | 11.0 | 0.00 | 0.00 | 0.00 | 84 | 1011.3 |
| 20260503041543 | 54 | 326 | 5.0 | 14.0 | 0.00 | 0.00 | 0.00 | 83 | 1011.4 |
| 20260503040041 | 54 | 298 | 2.0 | 9.0 | 0.00 | 0.00 | 0.00 | 80 | 1011.2 |
| 20260503034544 | 54 | 267 | 2.0 | 5.0 | 0.00 | 0.00 | 0.00 | 79 | 1011.2 |
| 20260503033051 | 54 | 259 | 2.0 | 5.0 | 0.00 | 0.00 | 0.00 | 78 | 1011.1 |
| 20260503031538 | 54 | 284 | 3.0 | 6.0 | 0.00 | 0.00 | 0.00 | 77 | 1011.1 |
| 20260503030037 | 54 | 269 | 3.0 | 8.0 | 0.00 | 0.00 | 0.00 | 76 | 1011.2 |
| 20260503024543 | 55 | 271 | 3.0 | 7.0 | 0.00 | 0.00 | 0.00 | 75 | 1011.2 |
| 20260503023031 | 55 | 281 | 4.0 | 8.0 | 0.00 | 0.00 | 0.00 | 74 | 1011.3 |
| 20260503021527 | 55 | 276 | 3.0 | 8.0 | 0.00 | 0.00 | 0.00 | 74 | 1011.2 |
| 20260503020024 | 56 | 252 | 3.0 | 7.0 | 0.00 | 0.00 | 0.00 | 73 | 1011.3 |
| 20260503014521 | 56 | 245 | 2.0 | 9.0 | 0.00 | 0.00 | 0.00 | 72 | 1011.0 |
| 20260503013031 | 56 | 261 | 4.0 | 9.0 | 0.00 | 0.00 | 0.00 | 70 | 1011.1 |
| 20260503011518 | 56 | 261 | 4.0 | 7.0 | 0.00 | 0.00 | 0.00 | 68 | 1011.2 |
| 20260503010016 | 57 | 245 | 3.0 | 6.0 | 0.00 | 0.00 | 0.00 | 67 | 1011.2 |
| 20260503004513 | 57 | 236 | 5.0 | 8.0 | 0.00 | 0.00 | 0.00 | 64 | 1011.4 |
| 20260503003012 | 58 | 228 | 5.0 | 8.0 | 0.00 | 0.00 | 0.00 | 62 | 1011.6 |
| 20260503001506 | 58 | 258 | 4.0 | 8.0 | 0.00 | 0.00 | 0.00 | 61 | 1011.8 |
| 20260503000004 | 58 | 280 | 2.0 | 6.0 | 0.00 | 0.00 | 0.00 | 60 | 1011.7 |
| 20260502234501 | 59 | 259 | 3.0 | 6.0 | 0.00 | 0.00 | 0.00 | 58 | 1011.9 |
| 20260502233059 | 59 | 251 | 4.0 | 7.0 | 0.00 | 0.00 | 0.00 | 57 | 1012.2 |
| 20260502231556 | 60 | 265 | 4.0 | 6.0 | 0.00 | 0.00 | 0.00 | 56 | 1012.2 |
| 20260502230100 | 60 | 283 | 4.0 | 6.0 | 0.00 | 0.00 | 0.00 | 55 | 1012.3 |
| 20260502224552 | 61 | 259 | 4.0 | 7.0 | 0.00 | 0.00 | 0.00 | 54 | 1012.3 |
| 20260502223059 | 61 | 243 | 4.0 | 9.0 | 0.00 | 0.00 | 0.00 | 53 | 1012.1 |
| 20260502221547 | 62 | 259 | 3.0 | 7.0 | 0.00 | 0.00 | 0.00 | 52 | 1012.2 |
| 20260502220053 | 62 | 265 | 3.0 | 8.0 | 0.00 | 0.00 | 0.00 | 51 | 1012.2 |
| 20260502214548 | 62 | 226 | 3.0 | 7.0 | 0.00 | 0.00 | 0.00 | 50 | 1012.2 |
| 20260502213048 | 62 | 245 | 3.0 | 8.0 | 0.00 | 0.00 | 0.00 | 51 | 1012.3 |
| 20260502211543 | 63 | 236 | 3.0 | 6.0 | 0.00 | 0.00 | 0.00 | 49 | 1012.4 |
| 20260502210042 | 63 | 229 | 4.0 | 7.0 | 0.00 | 0.00 | 0.00 | 48 | 1012.4 |
| 20260502204540 | 64 | 258 | 3.0 | 7.0 | 0.00 | 0.00 | 0.00 | 47 | 1012.6 |
| 20260502203046 | 64 | 263 | 2.0 | 4.0 | 0.00 | 0.00 | 0.00 | 47 | 1012.6 |
| 20260502201541 | 65 | 270 | 2.0 | 5.0 | 0.00 | 0.00 | 0.00 | 47 | 1012.7 |
| 20260502200038 | 66 | 252 | 2.0 | 5.0 | 0.00 | 0.00 | 0.00 | 45 | 1012.9 |
| 20260502194537 | 66 | 276 | 3.0 | 8.0 | 0.00 | 0.00 | 0.00 | 45 | 1013.1 |
| 20260502193052 | 67 | 282 | 3.0 | 9.0 | 0.00 | 0.00 | 0.00 | 45 | 1013.0 |
| 20260502191539 | 67 | 274 | 4.0 | 8.0 | 0.00 | 0.00 | 0.00 | 44 | 1013.0 |
| 20260502190042 | 68 | 238 | 2.0 | 5.0 | 0.00 | 0.00 | 0.00 | 43 | 1012.9 |
| 20260502184544 | 69 | 257 | 1.0 | 3.0 | 0.00 | 0.00 | 0.00 | 43 | 1012.8 |
| 20260502183034 | 69 | 259 | 2.0 | 4.0 | 0.00 | 0.00 | 0.00 | 41 | 1012.8 |
| 20260502181536 | 70 | 269 | 1.0 | 4.0 | 0.00 | 0.00 | 0.00 | 40 | 1012.9 |
| 20260502163025 | 74 | 322 | 6.0 | 15.0 | 0.00 | 0.00 | 0.00 | 32 | 1013.3 |
| 20260502161524 | 74 | 291 | 6.0 | 16.0 | 0.00 | 0.00 | 0.00 | 30 | 1013.5 |
| 20260502151518 | 76 | 269 | 6.0 | 15.0 | 0.00 | 0.00 | 0.00 | 29 | 1013.8 |
| 20260502123056 | 74 | 236 | 10.0 | 16.0 | 0.00 | 0.00 | 0.00 | 35 | 1015.6 |
| 20260502121554 | 73 | 235 | 8.0 | 17.0 | 0.00 | 0.00 | 0.00 | 37 | 1015.8 |
| 20260502114551 | 73 | 238 | 13.0 | 23.0 | 0.00 | 0.00 | 0.00 | 37 | 1016.1 |
| 20260502113101 | 74 | 300 | 6.0 | 13.0 | 0.00 | 0.00 | 0.00 | 37 | 1016.3 |
| 20260502111547 | 73 | 269 | 7.0 | 16.0 | 0.00 | 0.00 | 0.00 | 38 | 1016.4 |
| 20260502110048 | 73 | 247 | 10.0 | 17.0 | 0.00 | 0.00 | 0.00 | 38 | 1016.5 |
| 20260502104543 | 72 | 266 | 6.0 | 15.0 | 0.00 | 0.00 | 0.00 | 40 | 1016.7 |
| 20260502103039 | 72 | 242 | 6.0 | 13.0 | 0.00 | 0.00 | 0.00 | 45 | 1016.8 |
| 20260502101538 | 69 | 197 | 4.0 | 11.0 | 0.00 | 0.00 | 0.00 | 54 | 1017.1 |
| 20260502091527 | 68 | 209 | 8.0 | 13.0 | 0.00 | 0.00 | 0.00 | 54 | 1017.5 |
| 20260502071502 | 62 | 220 | 5.0 | 10.0 | 0.00 | 0.00 | 0.00 | 63 | 1018.5 |
| 20260502070117 | 61 | 236 | 5.0 | 9.0 | 0.00 | 0.00 | 0.00 | 62 | 1018.7 |
| 20260502064556 | 61 | 236 | 4.0 | 8.0 | 0.00 | 0.00 | 0.00 | 63 | 1018.8 |
| 20260502063101 | 59 | 219 | 7.0 | 12.0 | 0.00 | 0.00 | 0.00 | 63 | 1018.9 |
| 20260502061548 | 59 | 231 | 6.0 | 10.0 | 0.00 | 0.00 | 0.00 | 64 | 1019.1 |
| 20260502060046 | 58 | 205 | 6.0 | 10.0 | 0.00 | 0.00 | 0.00 | 64 | 1019.2 |
| 20260502054643 | 57 | 229 | 6.0 | 9.0 | 0.00 | 0.00 | 0.00 | 64 | 1019.4 |